"Pseudo-MPEC" for C00JFE1

Created 2019 Jan 14 12:18:03 UT using Find_Orb

Click here for an explanation of pseudo-MPECs

 
 Astrometry: 
     C00JFE1  C2019 01 11.31497 07 54 07.77 +54 20 46.1    ~1B9I 20.3 GVNEOCP703
     C00JFE1  C2019 01 11.32658 07 53 58.29 +54 19 13.2    ~1B9I 20.1 GVNEOCP703
     C00JFE1  C2019 01 11.33249 07 53 53.65 +54 18 25.0    ~1B9I 19.9 GVNEOCP703
     C00JFE1  C2019 01 11.40500 07 52 55.74 +54 08 35.1    ~1BAI 19.0 GVNEOCPI52
     C00JFE1  C2019 01 11.40597 07 52 54.92 +54 08 26.5    ~1BAI 19.8 GVNEOCPI52
     C00JFE1  C2019 01 11.40694 07 52 54.12 +54 08 18.3    ~1BAI 19.8 GVNEOCPI52
     C00JFE1  C2019 01 11.40791 07 52 53.42 +54 08 10.6    ~1BAI 19.9 GVNEOCPI52
     C00JFE1  C2019 01 11N,e!@cRo7l\DTNgAstrometry(we^p^-EW[hhP[Yi0?Te_q=.cdjF51
     C00JFE1  C2019 01 11:_@Rl?/M.wXC0G-OVMhMjwj.AR'n(dtA+L3J\:23r0Dt=M*j15mwF51
     C00JFE1  C2019 01 11!/[`[Heqcw+5a)cY0m#%ls[j5y#=2xaHGsdWXS?a=xLd!RiHL$8BF51
     C00JFE1  C2019 01 11.51965 07 51 26.47 +53 52 45.9    ~1BDI 20.0 GVNEOCP703
     C00JFE1  C2019 01 11.52193 07 51 24.78 +53 52 25.1    ~1BDI 19.5 GVNEOCP703
     C00JFE1  C2019 01 11.52497 07 51 22.27 +53 52 00.6    ~1BDI       VNEOCP703
     C00JFE1 pC2019 01 11)06+1%Ot](9yEkKdF#redacted;Sn)X`KKUFvfBZP2e;ODj#\sp[L01
     C00JFE1 KC2019 01 11j0GJL'YM$FI^P[#ldH6g*/]?\x%:BbJCdNJF.wJ.b^[e*FgAgq*KL01
     C00JFE1 KC2019 01 11lGAi2p9XXj\fjDJc/QPmZrGGvp,mbSi,?9yQqj3]41anOptZB6[:L01
     C00JFE1 KC2019 01 11puMofF7F4t4y5)clickN,W.`yyA:\W*6yB-uIcji?je$TTXj],PnL01
     C00JFE1 KC2019 01 12PiFAii(8Eb(eRbP1=*i-AO76DM^l9Fw)lL5j(ERd0^L;oiy^PA4g104
     C00JFE1 KC2019 01 12ok;t=Qta3s9w*xIyGmx,Cste*,4Sevgh;_I5G\/:Ym8\l`OjFMd@104
     C00JFE1 KC2019 01 1223D*O*S+herei'EN89@RheRo)La+RA;xxNfBX;f31/o12C#KdUm)104
     C00JFE1  C2019 01 12.27696 07 42 32.68 +52 10 24.1    ~1C7I 19.8 GVNEOCPI52
     C00JFE1  C2019 01 12.27737 07 42 32.37 +52 10 20.9    ~1C7I 19.8 GVNEOCPI52
     C00JFE1  C2019 01 12.27779 07 42 32.07 +52 10 17.3    ~1C7I 19.6 GVNEOCPI52
     C00JFE1  C2019 01 12.27820 07 42 31.76 +52 10 14.2    ~1C7I 19.7 GVNEOCPI52
     C00JFE1  C2019 01 13e3dxaPtsE!_2fo'Q[KT`icSrJp^]O/IOBg']q!1pVp(C?0NT5):$F51
     C00JFE1  C2019 01 13TGwWvtD#1oYBe5mHXf2aAGj5%j]/aVQ#(MTr14Aj0-#U8jAy1hCFF51
     C00JFE1  C2019 01 13aEqisKFk]42'DsaH(8IS#kQfor#8?aHnU/:My3REXiYDqWX%2qJ@F51
     C00JFE1 KC2019 01 13mV*#@x*s1\iLQhw.,/h`B_db4Z3@h#gx-jr,tkq1/;]:)ZIii7OeK63
     C00JFE1 KC2019 01 138qn%JgeyX\0BQG\Z[_I$PyD'mKEg@^]kQpB5AwL+?#RU^g;alk`6K63
     C00JFE1 KC2019 01 130W'(/QJ'Al$mQwJexplanation^SbKHJq90af#8llHJMP3%:FsmxK63
     C00JFE1 KC2019 01 13.87975307 26 17.49 +48 32 29.0    ~1DMI 19.8 GVNEOCPJ95
     C00JFE1 KC2019 01 13.88378507 26 15.19 +48 31 57.4    ~1DMI 20.0 GVNEOCPJ95
     C00JFE1 KC2019 01 13.88940607 26 12.04 +48 31 12.3    ~1DMI 20.0 GVNEOCPJ95

Station data:
(104) San Marcello Pistoiese  (N44.063037 E10.804200)  Italy. 0.40-m f/5
   reflector.
(703) Catalina Sky Survey  (N32.417006 W110.732640)  US/Arizona.  Observers
   B. M. Africano, E. J. Christensen, G. A. Farneth, D. C. Fuls, A. R. Gibbs,
   A. D. Grauer, H. Groeller, J. A. Johnson, R. A. Kowalski, S. M. Larson, G.
   J. Leonard, R. L. Seaman, F. C. Shelly. 0.68 m Schmidt + 10K CCD.
(F51) Pan-STARRS 1, Haleakala  (N20.707235 W156.255910)  US/Hawaii.
   Observers N. Primak, A. Schultz, S. Watters, J. Thiel, T. Goggia. Measurer
   PS1 Science Consortium. 1.8-m Ritchey-Chrétien + CCD.
(I52) Steward Observatory, Mt. Lemmon Station  (N32.442547 W110.788920)
   US/Arizona.  Observers B. M. Africano, E. J. Christensen, G. A. Farneth,
   D. C. Fuls, A. R. Gibbs, A. D. Grauer, H. Groeller, J. A. Johnson, R. A.
   Kowalski, S. M. Larson, G. J. Leonard, R. L. Seaman, F. C. Shelly. 1.0-m
   reflector + CCD.
(J95) Great Shefford  (N51.474969 W1.447003)  UK.  Observer P. Birtwhistle.
   0.40-m f/6.0 Schmidt-Cassegrain + CCD.
(K63) G. Pascoli Observatory, Castelvecchio Pascoli  (N44.082410 E10.462000)
   Italy.
(L01) Višnjan Observatory, Tičan  (N45.290900 E13.749300)  Croatia.
   Observers K. Korlević, E. Pettarin. Measurer E. Pettarin. 1.0-m f/2.9
   reflector + CCD.

Orbital elements:  C00JFE1
   Perihelion 2018 Oct 14.409751 +/- 0.0803 TT =  9:50:02 (JD 2458405.909751)
Epoch 2019 Jan 13.0 TT = JDT 2458496.5   Earth MOID: 0.1507   Ve: 0.0241
M  83.39501258 +/- 0.19             (J2000 ecliptic)          AutoNEOCP
n   0.92057383 +/- 0.00138          Peri.   46.76392 +/- 0.07
a   1.04655879 +/- 0.00104          Node   301.70527 +/- 0.020
e   0.3519022 +/- 0.00101           Incl.   21.44958 +/- 0.09
P   1.07/391.05d           H 22.7   G  0.15   U  8.3  
q 0.67827242 +/- 0.000392    Q 1.41484516 +/- 0.00246
From 33 observations 2019 Jan. 11-13; mean residual 0".41
Residuals in arcseconds: 
190111 703  .76+  .37-    190111 703  .46+  1.6-    190112 I52  .03-  .02+    
190111 703  .40-  .39+    190111 703  1.3-  .79-    190112 I52  .22-  .24+    
190111 703  .59+  .04-    190111 L01  .28-  .13-    190113 F51  .04-  .00     
190111 I52  .51+  .75+    190111 L01  .03-  .16+    190113 F51  .36-  .19-    
190111 I52  .05+  .10+    190111 L01  .39-  .08-    190113 F51  .17-  .02-    
190111 I52  .23-  .14-    190111 L01  .19-  .06+    190113 K63  .45+  .85-    
190111 I52  .37+  .12+    190112 104  .64+  .45+    190113 K63  .44+  .61-    
190111 F51  .11-  .08+    190112 104  .24-  .36+    190113 K63  .41+  .37+    
190111 F51  .08+  .12+    190112 104  .05-  .12-    190113 J95  .17+  .25-    
190111 F51  .06-  .08+    190112 I52  .17+  .09+    190113 J95  .18-  .32+    
190111 703  .05+  .19+    190112 I52  .01-  .21+    190113 J95  .11-  .09+    

Ephemerides (geocentric):
Date (UTC) HH   RA              Dec         delta   r     elong  mag " sig PA
---- -- -- --  -------------   -----------  ------ ------ -----  --- ---- ---
2019 01 14 12  07 20 49.845   +47 09 29.82  .16893 1.1376 153.8 20.2 .070 114
2019 01 14 13  07 20 28.924   +47 03 56.71  .16909 1.1378 153.9 20.2 .069 115
2019 01 14 14  07 20 08.115   +46 58 23.88  .16925 1.1380 153.9 20.2 .068 116
2019 01 14 15  07 19 47.419   +46 52 51.33  .16941 1.1383 154.0 20.2 .067 117
2019 01 14 16  07 19 26.835   +46 47 19.07  .16956 1.1385 154.1 20.2 .065 118
2019 01 14 17  07 19 06.363   +46 41 47.11  .16972 1.1387 154.1 20.2 .064 119
2019 01 14 18  07 18 46.001   +46 36 15.45  .16988 1.1389 154.2 20.2 .062 121
2019 01 14 19  07 18 25.749   +46 30 44.09  .17004 1.1391 154.3 20.2 .061 122
2019 01 14 20  07 18 05.606   +46 25 13.04  .17021 1.1394 154.3 20.2 .059 124
2019 01 14 21  07 17 45.572   +46 19 42.30  .17037 1.1396 154.4 20.2 .058 126
2019 01 14 22  07 17 25.645   +46 14 11.88  .17053 1.1398 154.4 20.2 .056 128
2019 01 14 23  07 17 05.826   +46 08 41.78  .17069 1.1400 154.5 20.2 .055 130
2019 01 15 00  07 16 46.113   +46 03 12.01  .17086 1.1402 154.6 20.2 .054 132
2019 01 15 01  07 16 26.507   +45 57 42.56  .17102 1.1405 154.6 20.2 .052 135
2019 01 15 02  07 16 07.005   +45 52 13.45  .17119 1.1407 154.7 20.2 .051 138
2019 01 15 03  07 15 47.608   +45 46 44.68  .17135 1.1409 154.7 20.2 .049 141
2019 01 15 04  07 15 28.315   +45 41 16.25  .17152 1.1411 154.8 20.2 .048 144
2019 01 15 05  07 15 09.125   +45 35 48.16  .17169 1.1413 154.8 20.2 .047 147
2019 01 15 06  07 14 50.038   +45 30 20.43  .17186 1.1415 154.9 20.2 .046 151
2019 01 15 07  07 14 31.053   +45 24 53.04  .17203 1.1418 154.9 20.2 .046 155
2019 01 15 08  07 14 12.169   +45 19 26.02  .17220 1.1420 155.0 20.2 .045 159
2019 01 15 09  07 13 53.386   +45 13 59.35  .17237 1.1422 155.1 20.2 .045 163
2019 01 15 10  07 13 34.703   +45 08 33.05  .17254 1.1424 155.1 20.2 .045 168
2019 01 15 11  07 13 16.119   +45 03 07.12  .17271 1.1426 155.2 20.2 .045 173
2019 01 15 12  07 12 57.634   +44 57 41.56  .17288 1.1429 155.2 20.2 .045 177
2019 01 15 13  07 12 39.248   +44 52 16.38  .17306 1.1431 155.3 20.2 .046   2
2019 01 15 14  07 12 20.959   +44 46 51.57  .17323 1.1433 155.3 20.2 .047   6
2019 01 15 15  07 12 02.767   +44 41 27.15  .17341 1.1435 155.4 20.2 .049  11
2019 01 15 16  07 11 44.672   +44 36 03.11  .17358 1.1437 155.4 20.2 .050  15
2019 01 15 17  07 11 26.673   +44 30 39.47  .17376 1.1439 155.4 20.2 .052  19
2019 01 15 18  07 11 08.769   +44 25 16.21  .17394 1.1442 155.5 20.2 .055  23
2019 01 15 19  07 10 50.959   +44 19 53.35  .17411 1.1444 155.5 20.2 .057  26
2019 01 15 20  07 10 33.244   +44 14 30.90  .17429 1.1446 155.6 20.2 .060  30
2019 01 15 21  07 10 15.622   +44 09 08.84  .17447 1.1448 155.6 20.2 .063  33
2019 01 15 22  07 09 58.093   +44 03 47.19  .17465 1.1450 155.7 20.2 .066  35
2019 01 15 23  07 09 40.657   +43 58 25.95  .17483 1.1452 155.7 20.2 .070  38
2019 01 16 00  07 09 23.312   +43 53 05.12  .17501 1.1455 155.8 20.2 .073  40
2019 01 16 01  07 09 06.059   +43 47 44.71  .17519 1.1457 155.8 20.2 .077  43
2019 01 16 02  07 08 48.896   +43 42 24.71  .17538 1.1459 155.8 20.2 .081  45
2019 01 16 03  07 08 31.823   +43 37 05.14  .17556 1.1461 155.9 20.2 .086  46
2019 01 16 04  07 08 14.840   +43 31 45.99  .17574 1.1463 155.9 20.2 .090  48
2019 01 16 05  07 07 57.947   +43 26 27.27  .17593 1.1465 156.0 20.2 .094  50
2019 01 16 06  07 07 41.141   +43 21 08.98  .17611 1.1468 156.0 20.2 .099  51
2019 01 16 07  07 07 24.424   +43 15 51.12  .17630 1.1470 156.0 20.2 .104  53
2019 01 16 08  07 07 07.794   +43 10 33.70  .17648 1.1472 156.1 20.2 .109  54
2019 01 16 09  07 06 51.251   +43 05 16.71  .17667 1.1474 156.1 20.2 .114  55
2019 01 16 10  07 06 34.794   +43 00 00.17  .17686 1.1476 156.1 20.2 .119  56
2019 01 16 11  07 06 18.423   +42 54 44.07  .17705 1.1478 156.2 20.2 .124  57